Alexandroupolis, Greece

7:09 AM EET on February 25, 2017 (GMT +0200)
Dimokritos

Weather History for LGAL - January, 2013

Change the Weather History Date:

Saturday, January 26, 2013

  Actual Average Record
Temperature  
Mean Temperature 37 °F -  
Max Temperature 41 °F 49 °F 60 °F (2005)
Min Temperature 33 °F 35 °F 15 °F (2000)
Degree Days  
Heating Degree Days 28    
Moisture  
Dew Point 37 °F    
Average Humidity 92    
Maximum Humidity 100    
Minimum Humidity 78    
Precipitation  
Precipitation 0.20 in 0.08 in - ()
Sea Level Pressure  
Sea Level Pressure 29.64 in    
Wind  
Wind Speed - ()    
Max Wind Speed -    
Max Gust Speed -    
Visibility 5.2 miles    
Events Rain , Snow    
Averages and records for this station are not official NWS values.
T = Trace of Precipitation, MM = Missing Value Source: Averaged Metar Reports

Daily Weather History Graph

Daily Weather History Graph

Search for Another Location

Airport or City:

Trip Planner

Search our weather history database for the weather conditions in past years. The results will help you decide how hot, cold, wet, or windy it might be!

Date:

Astronomy

Jan. 26, 2013 Rise Set
Actual Time 7:31 AM EET 5:26 PM EET
Civil Twilight 7:02 AM EET 5:55 PM EET
Nautical Twilight 6:29 AM EET 6:28 PM EET
Astronomical Twilight 5:56 AM EET 7:01 PM EET
Moon 5:02 PM EET (1/26) 6:37 AM EET (1/26)
Length of Visible Light 10h 53m
Length of Day
9h 54m
Waxing Gibbous, 99% of the Moon is Illuminated
Jan 26
Waxing Gibbous
Jan 27
Full
Feb 3
Last Quarter
Feb 10
New
Feb 17
First Quarter

Hourly Weather History & Observations

Time (EET) Temp. Dew Point Humidity Pressure Visibility Wind Dir Wind Speed Gust Speed Precip Events Conditions
12:20 AM 48.2 °F 46.4 °F 93% 29.62 in - North - - N/A Rain Light Rain
12:50 AM 46.4 °F 46.4 °F 100% 29.59 in - North - - N/A Rain Light Rain
1:20 AM 46.4 °F 46.4 °F 100% 29.59 in - North - - N/A Rain Rain
1:50 AM 46.4 °F 46.4 °F 100% 29.59 in - North - - N/A Rain Rain
2:00 AM 47 °F 46 °F 95% 29.60 in 4 mi Calm Calm - - Rain Rain
2:20 AM 46.4 °F 46.4 °F 100% 29.59 in - North - - N/A Rain Light Rain
2:50 AM 46.4 °F 44.6 °F 93% 29.59 in - North - - N/A   Overcast
3:50 AM 46.4 °F 42.8 °F 87% 29.59 in - North - - N/A   Overcast
4:50 AM 44.6 °F 44.6 °F 100% 29.59 in - North - - N/A Rain Light Rain
5:20 AM 44.6 °F 44.6 °F 100% 29.59 in - North - - N/A Rain Light Rain
5:50 AM 44.6 °F 44.6 °F 100% 29.59 in - North - - N/A Rain Light Rain
6:20 AM 44.6 °F 44.6 °F 100% 29.59 in - North - - N/A Rain Light Rain
6:50 AM 44.6 °F 44.6 °F 100% 29.59 in - North - - N/A Rain Light Rain
7:20 AM 44.6 °F 44.6 °F 100% 29.59 in - North - - N/A Rain Light Rain
7:50 AM 41.0 °F 39.2 °F 93% 29.59 in - North - - N/A Rain Light Rain
8:00 AM 40 °F 39 °F 97% 29.61 in 6 mi Calm Calm - - Rain Light Rain
8:20 AM 41.0 °F 39.2 °F 93% 29.59 in - North - - N/A Rain Light Rain
8:50 AM 39.2 °F 37.4 °F 93% 29.62 in - North - - N/A Rain Rain
9:20 AM 37.4 °F 37.4 °F 100% 29.62 in - North - - N/A Rain Rain
9:50 AM 37.4 °F 35.6 °F 93% 29.62 in - North - - N/A Rain Rain
10:20 AM 37.4 °F 35.6 °F 93% 29.62 in - North - - N/A Rain Rain
10:50 AM 37.4 °F 35.6 °F 93% 29.62 in - North - - N/A Rain , Snow Light Snow
11:20 AM 37.4 °F 35.6 °F 93% 29.62 in - North - - N/A Rain Rain
11:50 AM 37.4 °F 33.8 °F 87% 29.62 in - North - - N/A Rain Light Rain
12:20 PM 37.4 °F 33.8 °F 87% 29.65 in - North - - N/A Rain Light Rain
12:50 PM 37.4 °F 35.6 °F 93% 29.65 in - North - - N/A Rain Light Rain
1:20 PM 37.4 °F 35.6 °F 93% 29.65 in - North - - N/A Rain Light Rain
1:50 PM 39.2 °F 35.6 °F 87% 29.62 in - North - - N/A Rain Light Rain
2:00 PM 39 °F 35 °F 81% 29.64 in 6 mi Calm Calm - - Rain Light Rain
2:20 PM 39.2 °F 35.6 °F 87% 29.62 in - North - - N/A   Overcast
2:50 PM 39.2 °F 35.6 °F 87% 29.65 in - North - - N/A Rain Light Rain
3:20 PM 37.4 °F 35.6 °F 93% 29.65 in - North - - N/A Rain Light Rain
3:50 PM 37.4 °F 33.8 °F 87% 29.65 in - North - - N/A Rain Light Rain
4:20 PM 37.4 °F 33.8 °F 87% 29.65 in - North - - N/A Rain Light Rain
4:50 PM 35.6 °F 33.8 °F 93% 29.65 in - North - - N/A Rain Light Rain
5:20 PM 35.6 °F 33.8 °F 93% 29.65 in - North - - N/A   Overcast
5:50 PM 35.6 °F 32.0 °F 87% 29.68 in - North - - N/A   Overcast
6:20 PM 35.6 °F 32.0 °F 87% 29.68 in - North - - N/A   Overcast
6:50 PM 37.4 °F 33.8 °F 87% 29.68 in - North - - N/A Rain Light Rain
7:20 PM 35.6 °F 33.8 °F 93% 29.68 in - North - - N/A Rain Light Rain
7:50 PM 35.6 °F 32.0 °F 87% 29.71 in - North - - N/A Rain Light Rain
8:00 PM 36 °F 32 °F 78% 29.73 in 5 mi Calm Calm - - Rain Light Rain
8:20 PM 35.6 °F 32.0 °F 87% 29.71 in - North - - N/A Rain Rain
8:50 PM 35.6 °F 32.0 °F 87% 29.74 in - North - - N/A Rain Rain
9:20 PM 35.6 °F 33.8 °F 93% 29.74 in - North - - N/A Snow Light Snow
9:50 PM 35.6 °F 33.8 °F 93% 29.74 in - North - - N/A Snow Light Snow
10:20 PM 35.6 °F 33.8 °F 93% 29.74 in - North - - N/A Snow Light Snow
10:50 PM 33.8 °F 30.2 °F 87% 29.74 in - North - - N/A Snow Light Snow
11:20 PM 33.8 °F 30.2 °F 87% 29.74 in - North - - N/A Snow Light Snow
11:50 PM 33.8 °F 32.0 °F 93% 29.77 in - North - - N/A Snow Light Snow